EW9826 Weather Reports


Display with metric or nautical units.
time (UTC)temp
F
wind
direction
speed
MPH
gust
MPH
rain 1hr
in
rain 24hr
in
rain mn
in
humidity
%
barometer
mb
20260509031008 47 340 0.0 0.0 0.00 0.00 0.00 88 1018.9
20260509024008 48 340 0.0 0.0 0.00 0.00 0.00 88 1018.9
20260509023508 48 340 0.0 1.0 0.00 0.00 0.00 88 1018.9
20260509023008 48 340 0.0 0.0 0.00 0.00 0.00 88 1018.9
20260509022507 48 340 0.0 0.0 0.00 0.00 0.00 88 1018.9
20260509022007 48 340 0.0 0.0 0.00 0.00 0.00 88 1018.9
20260509021507 48 340 0.0 0.0 0.00 0.00 0.00 88 1018.9
20260509021008 48 340 0.0 0.0 0.00 0.00 0.00 88 1018.9
20260509020007 48 340 0.0 0.0 0.00 0.00 0.00 88 1018.9
20260509015007 48 340 0.0 0.0 0.00 0.00 0.00 87 1018.9
20260509010007 49 340 0.0 0.0 0.00 0.00 0.00 85 1019.2
20260509004008 50 340 0.0 0.0 0.00 0.00 0.00 84 1019.0
20260509003507 50 340 0.0 0.0 0.00 0.00 0.00 83 1019.1
20260509003007 50 340 0.0 0.0 0.00 0.00 0.00 83 1019.0
20260509002507 50 340 0.0 0.0 0.00 0.00 0.00 83 1018.9
20260509000006 51 340 0.0 0.0 0.00 0.00 0.00 82 1018.9
20260508235507 51 340 0.0 0.0 0.00 0.00 0.00 83 1018.9
20260508234007 51 340 0.0 0.0 0.00 0.00 0.00 84 1018.9
20260508233508 51 340 0.0 0.0 0.00 0.00 0.00 84 1018.9
20260508233007 51 340 0.0 0.0 0.00 0.00 0.00 85 1018.9
20260508232507 51 340 0.0 0.0 0.00 0.00 0.00 85 1018.9
20260508232007 51 340 0.0 0.0 0.00 0.00 0.00 85 1018.9
20260508230007 51 340 0.0 0.0 0.00 0.00 0.00 83 1018.9
20260508225506 51 340 0.0 0.0 0.00 0.00 0.00 83 1018.8
20260508225007 51 340 0.0 0.0 0.00 0.00 0.00 83 1018.9
20260508224507 51 340 0.0 0.0 0.00 0.00 0.00 82 1018.9
20260508224007 51 340 0.0 0.0 0.00 0.00 0.00 82 1018.9
20260508223507 51 340 0.0 0.0 0.00 0.00 0.00 81 1018.9
20260508223006 52 340 0.0 0.0 0.00 0.00 0.00 81 1018.9
20260508222506 52 340 0.0 0.0 0.00 0.00 0.00 81 1019.0
20260508222007 52 340 0.0 0.0 0.00 0.00 0.00 81 1019.0
20260508221506 52 340 0.0 0.0 0.00 0.00 0.00 80 1019.0
20260508221007 52 340 0.0 0.0 0.00 0.00 0.00 80 1018.9
20260508215007 53 340 0.0 0.0 0.00 0.00 0.00 79 1018.9
20260508214506 53 340 0.0 0.0 0.00 0.00 0.00 78 1018.9
20260508214007 53 340 0.0 0.0 0.00 0.00 0.00 78 1018.9
20260508212506 54 340 0.0 0.0 0.00 0.00 0.00 76 1018.9
20260508211506 55 340 0.0 0.0 0.00 0.00 0.00 75 1018.9
20260508211008 55 340 0.0 0.0 0.00 0.00 0.00 75 1018.9
20260508210006 55 340 0.0 0.0 0.00 0.00 0.00 74 1018.9
20260508204506 56 340 0.0 0.0 0.00 0.00 0.00 73 1018.8
20260508204007 56 340 0.0 0.0 0.00 0.00 0.00 73 1018.9
20260508203506 56 340 0.0 0.0 0.00 0.00 0.00 72 1018.9
20260508203006 57 340 0.0 0.0 0.00 0.00 0.00 72 1018.9
20260508202506 57 340 0.0 0.0 0.00 0.00 0.00 71 1018.9
20260508192006 60 340 0.0 1.0 0.00 0.00 0.00 62 1018.4
20260508191506 60 340 0.0 2.0 0.00 0.00 0.00 62 1018.4
20260508190006 61 340 1.0 3.0 0.00 0.00 0.00 61 1018.3
20260508185506 61 340 0.0 3.0 0.00 0.00 0.00 60 1018.3
20260508183506 61 340 1.0 5.0 0.00 0.00 0.00 60 1018.0
20260508183006 61 340 1.0 3.0 0.00 0.00 0.00 60 1017.9
20260508182505 61 340 1.0 3.0 0.00 0.00 0.00 60 1017.9
20260508182006 61 340 2.0 5.0 0.00 0.00 0.00 60 1017.9
20260508181505 61 340 3.0 6.0 0.00 0.00 0.00 59 1017.9
20260508181006 61 340 4.0 6.0 0.00 0.00 0.00 59 1017.9
20260508174006 61 335 2.0 5.0 0.00 0.00 0.00 59 1017.8
20260508173508 61 334 3.0 7.0 0.00 0.00 0.00 59 1017.7
20260508173006 61 334 3.0 5.0 0.00 0.00 0.00 60 1017.7
20260508172006 61 334 3.0 5.0 0.00 0.00 0.00 59 1017.7
20260508171505 61 335 3.0 5.0 0.00 0.00 0.00 59 1017.6
20260508171006 61 338 2.0 7.0 0.00 0.00 0.00 59 1017.6
20260508164505 62 3 1.0 3.0 0.00 0.00 0.00 51 1017.4
20260508164005 62 3 5.0 7.0 0.00 0.00 0.00 50 1017.4
20260508163505 62 327 3.0 6.0 0.00 0.00 0.00 52 1017.3
20260508163006 62 33 3.0 6.0 0.00 0.00 0.00 51 1017.3
20260508162506 63 33 2.0 5.0 0.00 0.00 0.00 52 1017.3
20260508162006 63 35 2.0 5.0 0.00 0.00 0.00 51 1017.3
20260508160006 64 326 3.0 6.0 0.00 0.00 0.00 47 1017.3
20260508155505 65 302 2.0 6.0 0.00 0.00 0.00 46 1017.3
20260508153506 64 0 2.0 5.0 0.00 0.00 0.00 47 1017.3
20260508152005 63 56 2.0 5.0 0.00 0.00 0.00 46 1017.4
20260508143005 63 0 5.0 7.0 0.00 0.00 0.00 52 1017.5
20260508142505 63 4 4.0 8.0 0.00 0.00 0.00 53 1017.6
20260508142005 63 3 2.0 7.0 0.00 0.00 0.00 53 1017.6
20260508141505 63 84 0.0 3.0 0.00 0.00 0.00 49 1017.7
20260508141006 63 84 1.0 3.0 0.00 0.00 0.00 52 1017.7
20260508132005 62 142 3.0 6.0 0.00 0.00 0.00 57 1017.9
20260508131505 62 144 1.0 5.0 0.00 0.00 0.00 56 1017.9
20260508124005 62 11 1.0 6.0 0.00 0.00 0.00 57 1017.9
20260508123504 62 355 2.0 7.0 0.00 0.00 0.00 56 1017.9
20260508123005 63 53 3.0 5.0 0.00 0.00 0.00 57 1017.9
20260508122505 63 10 1.0 3.0 0.00 0.00 0.00 57 1017.9
20260508122005 63 10 1.0 9.0 0.00 0.00 0.00 57 1017.9
20260508115005 62 105 2.0 8.0 0.00 0.00 0.00 58 1017.9
20260508114504 63 327 3.0 6.0 0.00 0.00 0.00 57 1017.9
20260508114005 62 121 2.0 8.0 0.00 0.00 0.00 60 1017.9
20260508113504 61 127 3.0 10.0 0.00 0.00 0.00 59 1017.9
20260508113005 62 94 2.0 7.0 0.00 0.00 0.00 61 1017.9
20260508112505 62 93 3.0 8.0 0.00 0.00 0.00 60 1018.0
20260508112004 61 92 3.0 9.0 0.00 0.00 0.00 61 1017.9
20260508111505 61 117 2.0 7.0 0.00 0.00 0.00 62 1018.0
20260508111005 61 155 3.0 8.0 0.00 0.00 0.00 62 1018.1
20260508110005 61 106 2.0 5.0 0.00 0.00 0.00 63 1018.2
20260508105505 60 105 2.0 7.0 0.00 0.00 0.00 63 1018.2
20260508095005 58 96 3.0 9.0 0.00 0.00 0.00 69 1018.4
20260508094504 57 96 2.0 9.0 0.00 0.00 0.00 69 1018.4
20260508090004 56 98 4.0 8.0 0.00 0.00 0.00 73 1018.4
20260508085504 55 53 2.0 9.0 0.00 0.00 0.00 74 1018.4
20260508085005 55 116 3.0 8.0 0.00 0.00 0.00 75 1018.4
20260508084504 55 133 2.0 7.0 0.00 0.00 0.00 77 1018.4
20260508084009 55 89 4.0 8.0 0.00 0.00 0.00 77 1018.4
20260508083508 54 111 3.0 8.0 0.00 0.00 0.00 78 1018.4
20260508083008 54 115 6.0 10.0 0.00 0.00 0.00 78 1018.4
20260508082508 53 117 5.0 9.0 0.00 0.00 0.00 79 1018.4
20260508082009 53 100 6.0 10.0 0.00 0.00 0.00 79 1018.4
20260508081508 53 103 5.0 10.0 0.00 0.00 0.00 79 1018.4
20260508081009 53 109 5.0 10.0 0.00 0.00 0.00 80 1018.4
20260508074508 52 100 4.0 8.0 0.00 0.00 0.00 81 1018.4
20260508074009 52 99 3.0 9.0 0.00 0.00 0.00 82 1018.4
20260508073508 52 98 5.0 9.0 0.00 0.00 0.00 82 1018.4
20260508073009 52 98 4.0 7.0 0.00 0.00 0.00 82 1018.4
20260508064509 51 96 4.0 9.0 0.00 0.00 0.00 84 1018.0
20260508061508 50 95 3.0 6.0 0.00 0.00 0.00 84 1017.9
20260508061008 50 96 4.0 9.0 0.00 0.00 0.00 84 1017.9
20260508060008 50 95 3.0 7.0 0.00 0.00 0.00 84 1017.9
20260508055509 50 95 2.0 5.0 0.00 0.00 0.00 85 1017.9
20260508055008 50 95 3.0 5.0 0.00 0.00 0.00 85 1017.9
20260508052008 50 94 3.0 6.0 0.00 0.00 0.00 85 1017.7
20260508051508 50 94 3.0 7.0 0.00 0.00 0.00 85 1017.6
20260508051009 50 94 4.0 7.0 0.00 0.00 0.00 85 1017.5
20260508050008 50 9 2.0 5.0 0.00 0.00 0.00 85 1017.5
20260508045507 50 8 3.0 5.0 0.00 0.00 0.00 85 1017.4
20260508045008 50 3 3.0 3.0 0.00 0.00 0.00 85 1017.3
20260508044508 50 4 3.0 5.0 0.00 0.00 0.00 85 1017.3
20260508044007 50 0 2.0 3.0 0.00 0.00 0.00 85 1017.3
20260508043507 50 0 3.0 5.0 0.00 0.00 0.00 85 1017.3
20260508043008 50 355 2.0 5.0 0.00 0.00 0.00 85 1017.3
20260508042008 50 355 3.0 5.0 0.00 0.00 0.00 85 1017.3
20260508035507 50 90 6.0 9.0 0.00 0.00 0.00 84 1017.3
20260508035008 50 83 3.0 8.0 0.00 0.00 0.00 83 1017.3
20260508033508 51 80 3.0 7.0 0.00 0.00 0.00 83 1017.3
20260508031508 51 80 2.0 6.0 0.00 0.00 0.00 83 1017.2